[[{"header":{"parameterUnit":"m.s-1","parameterCategory":1,"la1":30.2991,"la2":30.254,"lo1":-89.0895,"lo2":-89.0444,"dy":0.0017,"dx":0.0017,"nx":28,"ny":28,"refTime":"2025-04-24T21:00:00:Z","depth":0,"parameterNumber":2,"parameterNumberName":"U-component_of_WINDS"},"data":[0,0,0,0,0,0,0,0,0,0,0,0,0,0,0,0,0,0,0,0,0,0,0,0,0,0,0,0,0,0,0,0,0,0,0,0,0,0,0,0,0,0,0,0,0,0,0,0,0,0,0,0,0,0,0,0,0,0,-3.1203,-3.1203,0,-3.1226,-3.1226,-3.1226,-3.1223,-3.1223,-3.1223,-3.1222,-3.1245,-3.1246,-3.1247,0,0,0,0,0,0,0,0,0,0,0,0,0,-3.1158,-3.1159,-3.1203,-3.1203,-3.1204,-3.1226,-3.1226,-3.1226,-3.1223,-3.1223,-3.1222,-3.1222,-3.1244,-3.1246,-3.1247,0,0,0,0,0,0,0,0,0,0,0,0,0,-3.1179,-3.1159,-3.1203,-3.1205,-3.1205,-3.1226,-3.1226,-3.1226,-3.1223,-3.1223,-3.1222,-3.1222,-3.1244,-3.1245,-3.1247,-3.1267,0,0,-3.1251,-3.1252,0,0,0,0,0,0,0,0,-3.1178,-3.118,-3.1204,-3.1205,-3.1205,-3.1221,-3.1218,-3.124,-3.1224,-3.1217,-3.1222,-3.1222,-3.1237,-3.1239,-3.1245,-3.1268,-3.1269,-3.1251,-3.1252,-3.1253,-3.1253,0,0,0,0,0,0,0,-3.1176,-3.1179,-3.1212,-3.1205,-3.1205,-3.1205,-3.1207,-3.1223,-3.123,-3.1217,-3.1217,-3.122,-3.1237,-3.1243,-3.1245,-3.1269,-3.1251,-3.1253,-3.1253,-3.1254,-3.1312,-3.1312,0,0,0,0,0,0,-3.1174,-3.1178,-3.1211,-3.1213,-3.119,-3.1206,-3.1209,-3.1217,-3.123,-3.1231,-3.122,-3.1219,-3.1241,-3.1244,-3.1246,-3.1271,-3.1253,-3.1254,-3.1255,-3.1311,-3.1312,-3.1313,0,0,0,0,0,0,-3.1173,-3.1177,-3.121,-3.1195,-3.12,-3.1207,-3.1216,-3.1217,-3.1223,-3.1232,-3.1233,-3.1225,-3.1241,-3.1244,-3.1262,-3.1271,-3.1255,-3.1256,-3.131,-3.1311,-3.1312,-3.132,0,0,0,0,0,0,-3.1172,-3.1177,-3.1184,-3.1196,-3.12,-3.1226,-3.1217,-3.1218,-3.1226,-3.1225,-3.1237,-3.1238,-3.1241,-3.126,-3.1264,-3.1273,-3.1257,-3.1309,-3.1311,-3.1312,-3.1319,-3.1321,-3.1323,0,0,0,0,0,-3.117,-3.1185,-3.1184,-3.1188,-3.121,-3.1226,-3.1229,-3.1232,-3.1226,-3.1234,-3.124,-3.1238,-3.127,-3.1262,-3.1266,-3.1276,-3.1309,-3.131,-3.1312,-3.1318,-3.1321,-3.1323,0,0,0,0,0,0,-3.1173,-3.1186,-3.1186,-3.1204,-3.1214,-3.1226,-3.1235,-3.1235,-3.1246,-3.1245,-3.1248,-3.1251,-3.1269,-3.1275,-3.1265,-3.1297,-3.1289,-3.1291,-3.1292,-3.1295,-3.1297,-3.1295,-3.1258,0,0,0,0,0,-3.1176,-3.1188,-3.1199,-3.1214,-3.122,-3.1227,-3.1234,-3.1236,-3.1246,-3.125,-3.1257,-3.1267,-3.128,-3.1288,-3.13,-3.1321,-3.1323,-3.133,-3.1332,-3.1334,-3.1335,-3.1347,-3.1351,-3.1318,-3.1318,-3.1318,0,0,-3.1181,-3.119,-3.1198,-3.1215,-3.1223,-3.1236,-3.123,-3.1243,-3.1253,-3.1252,-3.1269,-3.1276,-3.1287,-3.1307,-3.1316,-3.1312,-3.1345,-3.1336,-3.1337,-3.1337,-3.1349,-3.1352,-3.1355,-3.1319,-3.1319,-3.1318,0,0,-3.1198,-3.1206,-3.122,-3.1229,-3.1241,-3.1246,-3.125,-3.1262,-3.1266,-3.1284,-3.1284,-3.1296,-3.1318,-3.1326,-3.1333,-3.1357,-3.1355,-3.1361,-3.1371,-3.1383,-3.1386,-3.1388,-3.1396,-3.1399,-3.1363,-3.1363,-3.1363,0,-3.1203,-3.1223,-3.1227,-3.1242,-3.125,-3.1251,-3.1266,-3.1274,-3.1289,-3.1295,-3.1291,-3.132,-3.1327,-3.1349,-3.1356,-3.1361,-3.1366,-3.1359,-3.1385,-3.1388,-3.139,-3.1398,-3.1401,-3.1364,-3.1364,-3.1364,-3.1363,0,-3.1229,-3.1242,-3.1253,-3.1269,-3.1278,-3.1292,-3.13,-3.1309,-3.1312,-3.1317,-3.1336,-3.1347,-3.1361,-3.1367,-3.1369,-3.139,-3.1387,-3.1384,-3.1376,-3.1393,-3.1401,-3.1404,-3.1364,-3.1364,-3.1364,-3.1364,0,0,-3.1245,-3.1266,-3.1269,-3.1277,-3.1292,-3.1303,-3.1318,-3.1334,-3.1342,-3.1353,-3.1366,-3.1386,-3.1384,-3.1392,-3.1396,-3.1406,-3.1425,-3.1402,-3.1402,-3.1405,-3.1449,-3.1451,-3.1454,-3.1425,-3.1425,-3.1426,-3.1448,0,-3.1263,-3.129,-3.1296,-3.1319,-3.1332,-3.1335,-3.1348,-3.1359,-3.1366,-3.1379,-3.1386,-3.14,-3.1396,-3.1401,-3.1412,-3.142,-3.1433,-3.1419,-3.1436,-3.1437,-3.1432,-3.1458,-3.1459,-3.1479,-3.1451,-3.1452,-3.1452,0,-3.1287,-3.13,-3.1324,-3.134,-3.1345,-3.1357,-3.1373,-3.1385,-3.1398,-3.1402,-3.1413,-3.1416,-3.1433,-3.1425,-3.1449,-3.1439,-3.1447,-3.1452,-3.1453,-3.1453,-3.1444,-3.1458,-3.1486,-3.1489,-3.1457,-3.1456,-3.1456,0,-3.1296,-3.132,-3.1338,-3.1345,-3.1363,-3.1371,-3.1379,-3.1392,-3.1402,-3.1416,-3.1422,-3.1437,-3.1445,-3.1458,-3.1465,-3.1459,-3.1488,-3.1481,-3.1492,-3.1492,-3.1496,-3.1496,-3.1525,-3.1504,-3.1504,-3.1504,-3.1504,0,-3.1314,-3.1329,-3.1343,-3.1353,-3.1371,-3.1379,-3.1396,-3.1404,-3.1416,-3.1429,-3.1433,-3.1445,-3.1454,-3.1468,-3.1474,-3.1493,-3.1497,-3.1501,-3.1502,-3.1499,-3.1499,-3.1503,-3.1502,-3.1504,-3.1504,-3.1504,-3.1504,0,-3.1327,-3.1336,-3.1356,-3.1372,-3.1377,-3.1389,-3.1403,-3.1414,-3.1422,-3.1439,-3.1443,-3.1456,-3.1472,-3.1481,-3.1502,-3.1506,-3.1527,-3.1528,-3.1522,-3.1523,-3.1533,-3.1531,-3.1565,-3.157,-3.1546,-3.1546,-3.1547,0,-3.1337,-3.1349,-3.1367,-3.1376,-3.1385,-3.14,-3.141,-3.1419,-3.1429,-3.1446,-3.1456,-3.1473,-3.1487,-3.1514,-3.1524,-3.1541,-3.1541,-3.1552,-3.1544,-3.1541,-3.1541,-3.154,-3.1541,-3.1553,-3.1553,-3.1553,-3.1553,0,-3.1355,-3.136,-3.1374,-3.1391,-3.1403,-3.1416,-3.1429,-3.1437,-3.1448,-3.146,-3.1477,-3.1488,-3.151,-3.1527,-3.1545,-3.1553,-3.1555,-3.1557,-3.156,-3.1557,-3.1553,-3.1555,-3.1525,-3.1555,-3.1555,-3.1555,-3.1555,-3.1555,-3.1367,-3.1378,-3.1393,-3.1409,-3.142,-3.1433,-3.1444,-3.1455,-3.1469,-3.1488,-3.1493,-3.1511,-3.1526,-3.155,-3.156,-3.1575,-3.1572,-3.1577,-3.1578,-3.1579,-3.1579,-3.1552,-3.1578,-3.1578,-3.1578,-3.1578,-3.1578,0,-3.1385,-3.1395,-3.141,-3.1429,-3.1442,-3.1444,-3.1459,-3.147,-3.1486,-3.15,-3.1514,-3.1535,-3.1552,-3.1566,-3.1583,-3.1593,-3.1594,-3.1597,-3.1596,-3.1598,-3.158,-3.1575,-3.1596,-3.1596,-3.1596,-3.1596,-3.1596,-3.1596,-3.1396,-3.1414,-3.1421,-3.1446,-3.1456,-3.1475,-3.1483,-3.1495,-3.1507,-3.153,-3.1544,-3.1553,-3.1567,-3.1586,-3.1602,-3.1606,-3.1612,-3.1615,-3.1618,-3.1601,-3.1599,-3.1597,-3.1592,-3.1616,-3.1616,-3.1634,-3.1634,-3.1635]},{"header":{"parameterUnit":"m.s-1","parameterCategory":1,"la1":30.2991,"la2":30.254,"lo1":-89.0895,"lo2":-89.0444,"dy":0.0017,"dx":0.0017,"nx":28,"ny":28,"refTime":"2025-04-24T21:00:00:Z","depth":0,"parameterNumber":3,"parameterNumberName":"V-component_of_WINDS"},"data":[0,0,0,0,0,0,0,0,0,0,0,0,0,0,0,0,0,0,0,0,0,0,0,0,0,0,0,0,0,0,0,0,0,0,0,0,0,0,0,0,0,0,0,0,0,0,0,0,0,0,0,0,0,0,0,0,0,0,5.0082,5.0083,0,5.0157,5.0158,5.0159,5.0212,5.0212,5.0212,5.0213,5.0286,5.0288,5.0289,0,0,0,0,0,0,0,0,0,0,0,0,0,4.9983,4.9985,5.0082,5.0083,5.0084,5.0157,5.0158,5.0159,5.0212,5.0212,5.0213,5.0213,5.0286,5.0288,5.0289,0,0,0,0,0,0,0,0,0,0,0,0,0,5.0039,4.9985,5.0082,5.0119,5.0123,5.0157,5.0158,5.0159,5.0211,5.0212,5.0213,5.0213,5.0285,5.0287,5.029,5.0291,0,0,5.0297,5.0298,0,0,0,0,0,0,0,0,5.0036,5.0042,5.0113,5.0117,5.0121,5.0176,5.015,5.0203,5.0211,5.0178,5.0213,5.0214,5.0249,5.0254,5.0267,5.0295,5.0298,5.0297,5.0298,5.0299,5.03,0,0,0,0,0,0,0,5.0032,5.0039,5.0112,5.0114,5.0119,5.0132,5.014,5.016,5.0209,5.0181,5.0185,5.0193,5.0251,5.0264,5.0269,5.0299,5.0297,5.0299,5.0301,5.0301,5.0335,5.0335,0,0,0,0,0,0,5.0022,5.0036,5.0109,5.0114,5.0079,5.0133,5.0143,5.0158,5.0209,5.0217,5.0193,5.0195,5.026,5.0266,5.0272,5.0279,5.0299,5.0302,5.0303,5.0336,5.0335,5.0335,0,0,0,0,0,0,5.002,5.0028,5.0106,5.0076,5.0087,5.0134,5.015,5.0159,5.0172,5.0218,5.0226,5.0197,5.0261,5.0268,5.0287,5.0282,5.0303,5.0305,5.0336,5.0336,5.0335,5.0292,0,0,0,0,0,0,5.0017,5.0027,5.0028,5.0076,5.0088,5.0121,5.015,5.016,5.0176,5.0181,5.0224,5.0232,5.0262,5.0283,5.0289,5.0286,5.0307,5.0337,5.0336,5.0335,5.0294,5.029,5.0286,0,0,0,0,0,5.0013,5.0012,5.0028,5.0037,5.0091,5.012,5.0127,5.0163,5.0176,5.0177,5.0207,5.0231,5.0282,5.0285,5.0292,5.0289,5.0338,5.0336,5.0335,5.0295,5.029,5.0286,0,0,0,0,0,0,4.996,5.0018,5.0037,5.0051,5.0081,5.0129,5.0132,5.0156,5.0181,5.0184,5.0226,5.0235,5.025,5.0271,5.0274,5.0295,5.0313,5.0313,5.028,5.0275,5.0272,5.0266,5.0309,0,0,0,0,0,4.9951,4.997,5.002,5.0027,5.0041,5.0084,5.0098,5.0123,5.0155,5.0167,5.0198,5.0227,5.025,5.0264,5.0287,5.0298,5.0309,5.0299,5.0295,5.0292,5.0291,5.0301,5.0297,5.0331,5.0331,5.0331,0,0,4.993,4.9964,4.9974,5.0018,5.0043,5.0063,5.0094,5.0112,5.0127,5.0169,5.019,5.0214,5.0249,5.0264,5.0272,5.0282,5.0285,5.029,5.0287,5.0289,5.0299,5.0296,5.0293,5.033,5.033,5.033,0,0,4.9903,4.993,4.9941,4.9967,5.0006,5.0035,5.0038,5.0084,5.0102,5.0123,5.0156,5.0174,5.0212,5.0237,5.0254,5.024,5.0263,5.0246,5.0225,5.0234,5.0231,5.0229,5.0225,5.0223,5.0246,5.0246,5.0245,0,4.9872,4.9903,4.9943,4.9961,4.9979,5.0021,5.0032,5.0055,5.0099,5.0111,5.0123,5.0173,5.02,5.0222,5.0219,5.0231,5.0236,5.0241,5.0229,5.0227,5.0225,5.0222,5.022,5.0243,5.0244,5.0244,5.0244,0,4.9864,4.9885,4.9889,4.9933,4.9953,4.9966,5.0009,5.0023,5.0048,5.0076,5.0098,5.0132,5.0164,5.0171,5.0194,5.0198,5.0203,5.0221,5.024,5.0219,5.0217,5.0216,5.024,5.0241,5.0242,5.0242,0,0,4.9803,4.9872,4.9873,4.9894,4.9942,4.9959,4.9976,5.0009,5.0022,5.0051,5.0067,5.01,5.0118,5.0138,5.0164,5.0171,5.016,5.0189,5.019,5.0183,5.0168,5.0154,5.0152,5.0176,5.0176,5.0176,5.0165,0,4.9784,4.9817,4.9855,4.9875,4.9896,4.9937,4.9952,4.9983,5.001,5.0032,5.0062,5.0085,5.0106,5.0119,5.0128,5.0159,5.0157,5.016,5.0191,5.0191,5.0181,5.0151,5.0136,5.0125,5.0165,5.0164,5.0164,0,4.9765,4.9796,4.9818,4.9867,4.9877,4.989,4.9925,4.9945,4.9981,5.0001,5.0025,5.0054,5.0074,5.0091,5.012,5.0121,5.0136,5.0154,5.0154,5.0158,5.0176,5.0155,5.0122,5.012,5.0163,5.0163,5.0163,0,4.972,4.9767,4.9787,4.9804,4.9861,4.9869,4.9893,4.9931,4.9949,4.9979,4.9992,5.0024,5.0041,5.0065,5.0102,5.0111,5.0128,5.0147,5.0145,5.0144,5.0146,5.0145,5.0115,5.0155,5.0155,5.0155,5.0155,0,4.9695,4.9707,4.9768,4.978,4.9796,4.984,4.9854,4.9882,4.9915,4.9934,4.9971,4.9988,5.0035,5.0058,5.0087,5.0108,5.0115,5.0131,5.0139,5.0128,5.0126,5.0138,5.014,5.0154,5.0154,5.0154,5.0155,0,4.9647,4.9688,4.9713,4.9766,4.978,4.9789,4.9834,4.9848,4.9879,4.9902,4.991,4.9957,4.9986,5.0026,5.0066,5.0086,5.0103,5.0114,5.0091,5.0095,5.0091,5.0091,5.0068,5.0068,5.0106,5.0106,5.0105,0,4.9628,4.9639,4.9694,4.971,4.9734,4.9758,4.9778,4.9822,4.9841,4.9886,4.9894,4.9927,4.9955,4.9999,5.0036,5.0068,5.0081,5.0071,5.0086,5.0076,5.0082,5.0081,5.0084,5.0067,5.0066,5.0066,5.0066,0,4.959,4.9611,4.9639,4.9674,4.9698,4.9727,4.9758,4.9769,4.982,4.984,4.9871,4.9893,4.9936,4.9967,5.0005,5.0029,5.0056,5.0061,5.0062,5.0051,5.0038,5.0046,5.0081,5.0061,5.0061,5.0062,5.0062,5.0062,4.9557,4.957,4.9611,4.9642,4.9671,4.97,4.9716,4.975,4.9777,4.9816,4.9841,4.9871,4.991,4.9963,4.9987,5.0011,5.0021,5.0023,5.0023,5.0023,5.002,5.0034,5.0018,5.0018,5.0018,5.0018,5.0018,0,4.9523,4.9552,4.958,4.9624,4.9648,4.9673,4.971,4.9728,4.9755,4.9789,4.9817,4.9854,4.9885,4.9927,4.9962,4.9973,4.9987,4.9981,4.9981,4.9986,5.0008,5.0004,4.997,4.997,4.997,4.997,4.997,4.997,4.9507,4.9531,4.9557,4.9596,4.9625,4.9656,4.9675,4.9703,4.9731,4.977,4.9798,4.9825,4.9863,4.9901,4.9932,4.9943,4.9955,4.9945,4.9961,4.998,4.9984,4.9988,4.9985,4.9947,4.9947,4.9937,4.9937,4.9937]}]]